When you browse on this site, cookies collect data to enhance your experience and personalize the content and advertising you see.
Visit our Privacy Policy to learn more. By continuing to use the site, you agree to this use of cookies and data.
  • In Slovakia
  • List of Countries
  • For 7 days
  • Water Temperature
  • Satellite Maps
  • Weather Map
  • Weather Widgets
  • user-avatar
    Login

    Hourly Weather Marbella

    Today, 15 December, Saturday

    Time Temperature Precipitation Wind Pressure Humidity
    00:00 +10°C° 0 mm 4 mps 764 mmHg 70%
    01:00 +10°C° 0 mm 3 mps 764 mmHg 71%
    02:00 +10°C° 0 mm 3 mps 764 mmHg 71%
    03:00 +10°C° 0 mm 3 mps 764 mmHg 72%
    04:00 +10°C° 0 mm 3 mps 764 mmHg 72%
    05:00 +10°C° 0 mm 3 mps 764 mmHg 72%
    06:00 +10°C° 0 mm 3 mps 764 mmHg 71%
    07:00 +10°C° 0 mm 3 mps 765 mmHg 68%
    08:00 +11°C° 0 mm 3 mps 765 mmHg 66%
    09:00 +12°C° 0 mm 3 mps 765 mmHg 63%
    10:00 +14°C° 0 mm 3 mps 765 mmHg 59%
    11:00 +17°C° 0 mm 3 mps 765 mmHg 55%
    12:00 +19°C° 0 mm 3 mps 765 mmHg 52%
    13:00 +19°C° 0 mm 3 mps 764 mmHg 52%
    14:00 +19°C° 0 mm 3 mps 764 mmHg 53%
    15:00 +20°C° 0 mm 3 mps 763 mmHg 53%
    16:00 +18°C° 0 mm 3 mps 763 mmHg 59%
    17:00 +17°C° 0 mm 3 mps 763 mmHg 65%
    18:00 +14°C° 0 mm 3 mps 763 mmHg 71%
    19:00 +14°C° 0 mm 3 mps 763 mmHg 71%
    20:00 +13°C° 0 mm 3 mps 763 mmHg 71%
    21:00 +13°C° 0 mm 3 mps 764 mmHg 71%
    22:00 +13°C° 0 mm 3 mps 763 mmHg 70%
    23:00 +13°C° 0 mm 3 mps 763 mmHg 69%

    Tomorrow, 16 December, Sunday

    Time Temperature Precipitation Wind Pressure Humidity
    00:00 +13°C° 0 mm 3 mps 763 mmHg 68%
    01:00 +13°C° 0 mm 3 mps 763 mmHg 68%
    02:00 +13°C° 0 mm 3 mps 762 mmHg 68%
    03:00 +13°C° 0 mm 3 mps 762 mmHg 68%
    04:00 +12°C° 0 mm 3 mps 762 mmHg 68%
    05:00 +12°C° 0 mm 3 mps 762 mmHg 68%
    06:00 +12°C° 0 mm 3 mps 762 mmHg 69%
    07:00 +13°C° 0 mm 3 mps 762 mmHg 66%
    08:00 +14°C° 0 mm 3 mps 762 mmHg 64%
    09:00 +14°C° 0 mm 4 mps 762 mmHg 62%
    10:00 +17°C° 0 mm 4 mps 762 mmHg 59%
    11:00 +18°C° 0 mm 4 mps 763 mmHg 56%
    12:00 +20°C° 0 mm 5 mps 763 mmHg 52%
    13:00 +20°C° 0 mm 5 mps 762 mmHg 56%
    14:00 +20°C° 0 mm 5 mps 762 mmHg 59%
    15:00 +20°C° 0 mm 5 mps 762 mmHg 62%
    16:00 +19°C° 0.1 mm 5 mps 762 mmHg 69%
    17:00 +18°C° 0.1 mm 4 mps 763 mmHg 76%
    18:00 +17°C° 0.1 mm 4 mps 763 mmHg 83%
    19:00 +17°C° 0 mm 4 mps 763 mmHg 85%
    20:00 +15°C° 0 mm 4 mps 764 mmHg 88%
    21:00 +16°C° 0 mm 3 mps 764 mmHg 90%
    22:00 +16°C° 0 mm 3 mps 764 mmHg 91%
    23:00 +14°C° 0 mm 3 mps 764 mmHg 91%

    Day after tomorrow, 17 December, Monday

    Time Temperature Precipitation Wind Pressure Humidity
    00:00 +14°C° 0 mm 3 mps 764 mmHg 92%
    01:00 +13°C° 0 mm 3 mps 764 mmHg 92%
    02:00 +12°C° 0 mm 3 mps 764 mmHg 91%
    03:00 +12°C° 0 mm 3 mps 764 mmHg 91%
    04:00 +12°C° 0 mm 3 mps 764 mmHg 88%
    05:00 +11°C° 0 mm 3 mps 764 mmHg 85%
    06:00 +11°C° 0 mm 3 mps 764 mmHg 82%
    07:00 +13°C° 0 mm 2 mps 764 mmHg 78%
    08:00 +14°C° 0 mm 2 mps 764 mmHg 74%
    09:00 +14°C° 0 mm 2 mps 764 mmHg 69%
    10:00 +16°C° 0 mm 2 mps 764 mmHg 60%
    11:00 +18°C° 0 mm 2 mps 764 mmHg 51%
    12:00 +20°C° 0 mm 2 mps 764 mmHg 42%
    13:00 +20°C° 0 mm 2 mps 764 mmHg 44%
    14:00 +19°C° 0 mm 3 mps 763 mmHg 46%
    15:00 +19°C° 0 mm 3 mps 763 mmHg 47%
    16:00 +18°C° 0 mm 3 mps 763 mmHg 59%
    17:00 +16°C° 0 mm 3 mps 763 mmHg 71%
    18:00 +13°C° 0 mm 3 mps 763 mmHg 83%
    19:00 +13°C° 0 mm 3 mps 763 mmHg 85%
    20:00 +13°C° 0 mm 4 mps 763 mmHg 88%
    21:00 +13°C° 0 mm 4 mps 764 mmHg 91%
    22:00 +13°C° 0 mm 4 mps 763 mmHg 91%
    23:00 +12°C° 0 mm 4 mps 763 mmHg 91%

    18 December, Tuesday

    Time Temperature Precipitation Wind Pressure Humidity
    00:00 +12°C° 0 mm 4 mps 763 mmHg 91%
    01:00 +12°C° 0 mm 4 mps 763 mmHg 90%
    02:00 +12°C° 0 mm 3 mps 762 mmHg 89%
    03:00 +12°C° 0 mm 3 mps 762 mmHg 87%
    04:00 +12°C° 0 mm 3 mps 762 mmHg 85%
    05:00 +11°C° 0 mm 3 mps 762 mmHg 83%
    06:00 +11°C° 0 mm 3 mps 762 mmHg 80%
    07:00 +12°C° 0 mm 3 mps 762 mmHg 77%
    08:00 +13°C° 0 mm 3 mps 762 mmHg 75%
    09:00 +14°C° 0 mm 3 mps 762 mmHg 72%
    10:00 +16°C° 0 mm 3 mps 762 mmHg 69%
    11:00 +17°C° 0 mm 3 mps 762 mmHg 66%
    12:00 +19°C° 0 mm 3 mps 762 mmHg 63%
    13:00 +19°C° 0 mm 3 mps 761 mmHg 63%
    14:00 +19°C° 0 mm 2 mps 760 mmHg 64%
    15:00 +19°C° 0 mm 2 mps 760 mmHg 64%
    16:00 +17°C° 0 mm 2 mps 760 mmHg 71%
    17:00 +16°C° 0 mm 1 mps 760 mmHg 78%
    18:00 +14°C° 0 mm 1 mps 760 mmHg 85%
    19:00 +14°C° 0 mm 1 mps 760 mmHg 85%
    20:00 +14°C° 0 mm 1 mps 761 mmHg 85%
    21:00 +14°C° 0 mm 1 mps 761 mmHg 85%
    22:00 +14°C° 0 mm 1 mps 761 mmHg 85%
    23:00 +15°C° 0 mm 1 mps 761 mmHg 85%

    19 December, Wednesday

    Time Temperature Precipitation Wind Pressure Humidity
    00:00 +15°C° 0 mm 2 mps 760 mmHg 85%
    01:00 +15°C° 0.2 mm 2 mps 760 mmHg 87%
    02:00 +15°C° 0.2 mm 2 mps 760 mmHg 89%
    03:00 +15°C° 0.2 mm 2 mps 760 mmHg 91%
    04:00 +14°C° 0.2 mm 3 mps 761 mmHg 92%
    05:00 +14°C° 0.2 mm 3 mps 761 mmHg 92%
    06:00 +14°C° 0.2 mm 4 mps 761 mmHg 93%
    07:00 +13°C° 0 mm 4 mps 762 mmHg 90%
    08:00 +13°C° 0 mm 4 mps 762 mmHg 87%
    09:00 +12°C° 0 mm 4 mps 763 mmHg 84%
    10:00 +13°C° 0 mm 4 mps 763 mmHg 72%
    11:00 +14°C° 0 mm 4 mps 763 mmHg 60%
    12:00 +15°C° 0 mm 4 mps 763 mmHg 49%
    13:00 +17°C° 0 mm 4 mps 763 mmHg 48%
    14:00 +17°C° 0 mm 4 mps 762 mmHg 47%
    15:00 +17°C° 0 mm 4 mps 762 mmHg 46%
    16:00 +14°C° 0 mm 4 mps 762 mmHg 53%
    17:00 +13°C° 0 mm 4 mps 763 mmHg 61%
    18:00 +12°C° 0 mm 4 mps 763 mmHg 69%
    19:00 +11°C° 0 mm 4 mps 764 mmHg 71%
    20:00 +11°C° 0 mm 4 mps 764 mmHg 73%
    21:00 +11°C° 0 mm 4 mps 765 mmHg 75%
    22:00 +10°C° 0 mm 4 mps 765 mmHg 75%
    23:00 +10°C° 0 mm 3 mps 765 mmHg 76%

    20 December, Thursday

    Time Temperature Precipitation Wind Pressure Humidity
    00:00 +10°C° 0 mm 3 mps 764 mmHg 77%
    01:00 +10°C° 0 mm 3 mps 764 mmHg 77%
    02:00 +10°C° 0 mm 3 mps 764 mmHg 77%
    03:00 +10°C° 0 mm 3 mps 764 mmHg 78%
    04:00 +10°C° 0 mm 3 mps 764 mmHg 78%
    05:00 +9°C° 0 mm 3 mps 764 mmHg 79%
    06:00 +9°C° 0 mm 3 mps 764 mmHg 80%
    07:00 +10°C° 0 mm 3 mps 765 mmHg 78%
    08:00 +10°C° 0 mm 2 mps 765 mmHg 76%
    09:00 +12°C° 0 mm 2 mps 766 mmHg 75%
    10:00 +13°C° 0 mm 2 mps 765 mmHg 67%
    11:00 +15°C° 0 mm 2 mps 765 mmHg 59%
    12:00 +18°C° 0 mm 1 mps 765 mmHg 51%
    13:00 +18°C° 0 mm 1 mps 765 mmHg 51%
    14:00 +18°C° 0 mm 1 mps 764 mmHg 51%
    15:00 +18°C° 0 mm 1 mps 764 mmHg 50%
    16:00 +15°C° 0 mm 1 mps 764 mmHg 57%
    17:00 +14°C° 0 mm 1 mps 765 mmHg 63%
    18:00 +12°C° 0 mm 1 mps 765 mmHg 70%
    19:00 +12°C° 0 mm 1 mps 765 mmHg 70%
    20:00 +11°C° 0 mm 1 mps 765 mmHg 71%
    21:00 +11°C° 0 mm 1 mps 766 mmHg 71%
    22:00 +11°C° 0 mm 1 mps 766 mmHg 70%
    23:00 +11°C° 0 mm 1 mps 766 mmHg 68%
    Show more